Weather in Rosiori de Vede

Romania     44°06′30″N   24°59′41″E
temp.,
°C
wind,
m/s
gust,
m/s
humid.,
%
clouds,
%
prec.,
mm/h
press.,
hPa
HPBL,
m
9 march, tue
tue923:00+5wnw510550 0.0 1017245
02:00+3nnw23600 0.0 101859
05:00+1e511820 0.0 1019444
08:00+1e610750 0.0 1020578
11:00+5e575647 0.0 1020756
14:00+7e444972 0.0 10191041
17:00+8ene4450100 0.0 1019964
20:00+6ene4860100 0.0 1019312
10 march, wed
wed1023:00+5e5970100 0.0 1020384
02:00+4e5778100 0.1 1019489
05:00+4e6996100 1.4 1018541
08:00+4e71196100 4.2 1017574
11:00+2ene81295100 2.3 1016546
14:00+1ene91496100 5.0 1015590
17:00+1ene71297100 3.9 1016524
20:00+2ene71197100 6.8 1018433
11 march, thu
thu1123:00+1ne61097100 0.8 1019462
02:00+1ne4797100 1.5 1020340
05:000ne2399100 1.7 1020145
08:000ene3598100 2.4 1022265
11:00+2ne338595 0.1 1023478
14:00+4n117597 0.1 1024610
17:00+4wnw1270100 0.0 1023691
20:00+4sse1175100 0.1 102539
12 march, fri
fri1223:00+3sse337799 0.0 102663
02:00+2sse338092 0.0 102564
05:00+1sse2487100 0.0 1024101
08:00+2ese2482100 0.0 1024191
11:00+6ese2263100 0.0 1023519
14:00+8s225399 0.0 1022774
17:00+9wnw235087 0.0 1020854
20:00+6nnw006394 0.0 102122
13 march, sat
sat1323:00+5ese1267100 0.0 102122
02:00+4ese2270100 0.0 101922
05:00+4e337494 0.0 101852
08:00+4ene237597 0.0 1018116
11:00+8n2260100 0.0 1018376
14:00+8w2269100 0.1 1018334
17:00+9w477399 0.0 1017597
20:00+6sw338654 0.0 101874